Time,TemperatureF,DewpointF,PressureIn,WindDirection,WindDirectionDegrees,WindSpeedMPH,WindSpeedGustMPH,Humidity,HourlyPrecipIn,Conditions,Clouds,dailyrainin,SoftwareType,DateUTC
2013-04-18 00:01:00,59.5,58.9,30.17,SSW,209,0.0,0.0,98,0.00,,,1.95,Wunderground v.1.13,2013-04-18 04:01:00,
2013-04-18 00:02:00,59.5,58.9,30.17,SSW,209,0.0,0.0,98,0.00,,,1.95,Wunderground v.1.13,2013-04-18 04:02:00,
2013-04-18 00:04:00,59.5,58.9,30.17,SSW,209,0.0,0.0,98,0.00,,,1.95,Wunderground v.1.13,2013-04-18 04:04:00,
2013-04-18 00:09:00,59.3,58.4,30.18,South,184,0.0,0.0,97,0.00,,,1.95,Wunderground v.1.13,2013-04-18 04:09:00,
2013-04-18 00:11:00,59.3,58.4,30.18,South,184,0.0,0.0,97,0.00,,,0.00,Wunderground v.1.13,2013-04-18 04:11:00,
2013-04-18 00:16:00,59.3,58.7,30.17,South,184,0.0,0.0,98,0.00,,,0.00,Wunderground v.1.13,2013-04-18 04:16:00,
2013-04-18 00:21:00,59.2,58.3,30.16,South,184,0.0,0.0,97,0.00,,,0.00,Wunderground v.1.13,2013-04-18 04:21:00,
2013-04-18 00:27:00,59.2,58.3,30.16,South,184,0.0,0.0,97,0.00,,,0.00,Wunderground v.1.13,2013-04-18 04:27:00,
2013-04-18 00:32:00,59.1,58.2,30.16,South,184,0.0,0.0,97,0.00,,,0.00,Wunderground v.1.13,2013-04-18 04:32:00,
2013-04-18 00:37:00,58.9,58.1,30.16,South,184,0.0,0.0,97,0.00,,,0.00,Wunderground v.1.13,2013-04-18 04:37:00,
2013-04-18 00:42:00,58.9,58.1,30.16,South,184,0.0,0.0,97,0.00,,,0.00,Wunderground v.1.13,2013-04-18 04:42:00,
2013-04-18 00:48:00,58.9,57.8,30.16,South,184,0.0,0.0,96,0.00,,,0.00,Wunderground v.1.13,2013-04-18 04:48:00,
2013-04-18 00:54:00,58.8,57.7,30.16,South,184,0.0,0.0,96,0.00,,,0.00,Wunderground v.1.13,2013-04-18 04:54:00,
2013-04-18 00:59:00,58.9,57.8,30.17,South,184,0.0,0.0,96,0.00,,,0.00,Wunderground v.1.13,2013-04-18 04:59:00,
2013-04-18 01:04:00,58.8,57.4,30.17,South,184,0.0,0.0,95,0.00,,,0.00,Wunderground v.1.13,2013-04-18 05:04:00,
2013-04-18 01:09:00,58.8,57.4,30.17,South,184,0.0,0.0,95,0.00,,,0.00,Wunderground v.1.13,2013-04-18 05:09:00,
2013-04-18 01:14:00,58.9,57.2,30.17,South,184,0.0,0.0,94,0.00,,,0.00,Wunderground v.1.13,2013-04-18 05:14:00,
2013-04-18 01:19:00,58.9,57.2,30.17,South,184,0.0,0.0,94,0.00,,,0.00,Wunderground v.1.13,2013-04-18 05:19:00,
2013-04-18 01:24:00,59.0,57.0,30.17,South,184,0.0,0.0,93,0.00,,,0.00,Wunderground v.1.13,2013-04-18 05:24:00,
2013-04-18 01:29:00,59.2,57.2,30.18,South,184,0.0,0.0,93,0.00,,,0.00,Wunderground v.1.13,2013-04-18 05:29:00,
2013-04-18 01:34:00,59.5,57.2,30.18,South,184,0.0,0.0,92,0.00,,,0.00,Wunderground v.1.13,2013-04-18 05:34:00,
2013-04-18 01:39:00,59.9,57.6,30.18,South,184,0.0,0.0,92,0.00,,,0.00,Wunderground v.1.13,2013-04-18 05:39:00,
2013-04-18 01:44:00,60.5,57.9,30.18,South,172,0.0,0.0,91,0.00,,,0.00,Wunderground v.1.13,2013-04-18 05:44:00,
2013-04-18 21:18:00,68.1,58.3,30.07,SSW,192,0.0,1.0,71,0.00,,,0.00,Wunderground v.1.13,2013-04-19 01:18:00,
2013-04-18 21:23:00,68.0,58.2,30.07,SSW,192,1.0,1.0,71,0.00,,,0.00,Wunderground v.1.13,2013-04-19 01:23:00,
2013-04-18 21:28:00,68.0,58.6,30.07,SSE,157,0.0,5.0,72,0.00,,,0.00,Wunderground v.1.13,2013-04-19 01:28:00,
2013-04-18 21:33:00,67.9,58.9,30.06,SSE,165,0.0,0.0,73,0.00,,,0.00,Wunderground v.1.13,2013-04-19 01:33:00,
2013-04-18 21:38:00,67.7,58.7,30.06,SSE,156,0.0,0.0,73,0.00,,,0.00,Wunderground v.1.13,2013-04-19 01:38:00,
2013-04-18 21:43:00,67.6,58.6,30.06,SSE,156,0.0,1.0,73,0.00,,,0.00,Wunderground v.1.13,2013-04-19 01:43:00,
2013-04-18 21:48:00,67.5,58.9,30.07,SSE,156,0.0,0.0,74,0.00,,,0.00,Wunderground v.1.13,2013-04-19 01:48:00,
2013-04-18 21:53:00,67.3,59.1,30.07,South,185,0.0,3.0,75,0.00,,,0.00,Wunderground v.1.13,2013-04-19 01:53:00,
2013-04-18 21:58:00,67.2,59.4,30.07,South,178,1.0,3.0,76,0.00,,,0.00,Wunderground v.1.13,2013-04-19 01:58:00,
2013-04-18 22:03:00,67.2,59.4,30.07,SSW,192,0.0,1.0,76,0.00,,,0.00,Wunderground v.1.13,2013-04-19 02:03:00,
2013-04-18 22:08:00,67.1,59.6,30.07,South,185,0.0,3.0,77,0.00,,,0.00,Wunderground v.1.13,2013-04-19 02:08:00,
2013-04-18 22:13:00,67.0,59.9,30.07,SE,126,1.0,1.0,78,0.00,,,0.00,Wunderground v.1.13,2013-04-19 02:13:00,
2013-04-18 22:18:00,67.0,59.9,30.07,South,178,0.0,3.0,78,0.00,,,0.00,Wunderground v.1.13,2013-04-19 02:18:00,
2013-04-18 22:23:00,66.9,60.2,30.07,SSW,196,0.0,1.0,79,0.00,,,0.00,Wunderground v.1.13,2013-04-19 02:23:00,
2013-04-18 22:28:00,67.0,60.3,30.07,SW,227,0.0,7.0,79,0.00,,,0.00,Wunderground v.1.13,2013-04-19 02:28:00,
2013-04-18 22:33:00,67.0,60.3,30.07,SSE,166,0.0,3.0,79,0.00,,,0.00,Wunderground v.1.13,2013-04-19 02:33:00,
2013-04-18 22:38:00,67.0,60.3,30.06,SSE,164,0.0,5.0,79,0.00,,,0.00,Wunderground v.1.13,2013-04-19 02:38:00,
2013-04-18 22:43:00,67.0,60.3,30.06,South,171,0.0,1.0,79,0.00,,,0.00,Wunderground v.1.13,2013-04-19 02:43:00,
2013-04-18 22:48:00,66.8,60.1,30.05,South,186,0.0,1.0,79,0.00,,,0.00,Wunderground v.1.13,2013-04-19 02:48:00,
2013-04-18 22:53:00,66.7,60.0,30.04,ESE,122,1.0,5.0,79,0.00,,,0.00,Wunderground v.1.13,2013-04-19 02:53:00,
2013-04-18 22:58:00,66.6,60.2,30.03,ESE,122,0.0,1.0,80,0.00,,,0.00,Wunderground v.1.13,2013-04-19 02:58:00,
2013-04-18 23:03:00,66.6,60.2,30.04,SE,127,0.0,1.0,80,0.00,,,0.00,Wunderground v.1.13,2013-04-19 03:03:00,
2013-04-18 23:08:00,66.7,60.3,30.05,SSW,203,0.0,3.0,80,0.00,,,0.00,Wunderground v.1.13,2013-04-19 03:08:00,
2013-04-18 23:13:00,66.7,60.3,30.04,West,270,0.0,4.0,80,0.00,,,0.00,Wunderground v.1.13,2013-04-19 03:13:00,
2013-04-18 23:18:00,66.8,60.4,30.05,South,178,0.0,4.0,80,0.00,,,0.00,Wunderground v.1.13,2013-04-19 03:18:00,
2013-04-18 23:23:00,66.8,60.4,30.05,South,188,0.0,4.0,80,0.00,,,0.00,Wunderground v.1.13,2013-04-19 03:23:00,
2013-04-18 23:28:00,66.8,60.4,30.04,East,94,0.0,4.0,80,0.00,,,0.00,Wunderground v.1.13,2013-04-19 03:28:00,
2013-04-18 23:33:00,66.8,60.4,30.04,SSE,168,0.0,4.0,80,0.00,,,0.00,Wunderground v.1.13,2013-04-19 03:33:00,
2013-04-18 23:38:00,67.0,60.6,30.04,South,173,0.0,8.0,80,0.00,,,0.00,Wunderground v.1.13,2013-04-19 03:38:00,
2013-04-18 23:43:00,67.0,60.6,30.04,SSE,166,4.0,5.0,80,0.00,,,0.00,Wunderground v.1.13,2013-04-19 03:43:00,
2013-04-18 23:48:00,67.0,60.6,30.03,South,187,0.0,3.0,80,0.00,,,0.00,Wunderground v.1.13,2013-04-19 03:48:00,
2013-04-18 23:53:00,66.9,60.9,30.03,SW,225,0.0,3.0,81,0.00,,,0.00,Wunderground v.1.13,2013-04-19 03:53:00,
2013-04-18 23:58:00,66.8,60.8,30.03,South,181,3.0,4.0,81,0.00,,,0.00,Wunderground v.1.13,2013-04-19 03:58:00,